1586988243,2020-04-16 00:04,100.00,996.54,1014.37,148,5.64,5.64,-91,1
1586988304,2020-04-16 00:05,100.00,996.59,1014.42,148,5.66,5.66,-92,1
1586988367,2020-04-16 00:06,100.00,996.48,1014.31,148,5.73,5.73,-92,1
1586988430,2020-04-16 00:07,100.00,996.46,1014.29,148,5.70,5.70,-93,1
1586988490,2020-04-16 00:08,100.00,996.50,1014.33,148,5.84,5.84,-91,1
1586988616,2020-04-16 00:10,100.00,996.41,1014.24,148,5.76,5.76,-93,1
1586988676,2020-04-16 00:11,100.00,996.31,1014.14,148,5.81,5.81,-92,1
1586988737,2020-04-16 00:12,100.00,996.26,1014.09,148,5.78,5.78,-93,1
1586988797,2020-04-16 00:13,100.00,996.31,1014.14,148,5.79,5.79,-91,1
1586988858,2020-04-16 00:14,100.00,996.22,1014.05,148,5.83,5.83,-90,1
1586988919,2020-04-16 00:15,100.00,996.21,1014.04,148,5.80,5.80,-90,1
1586988979,2020-04-16 00:16,100.00,996.24,1014.07,148,5.80,5.80,-91,1
1586989039,2020-04-16 00:17,100.00,996.24,1014.07,148,5.79,5.79,-92,1
1586989100,2020-04-16 00:18,100.00,996.24,1014.07,148,5.79,5.79,-91,1
1586989160,2020-04-16 00:19,100.00,996.15,1013.98,148,5.78,5.78,-92,1
1586989220,2020-04-16 00:20,100.00,996.18,1014.01,148,5.81,5.81,-92,1
1586989280,2020-04-16 00:21,100.00,996.19,1014.02,148,5.81,5.81,-92,1
1586989340,2020-04-16 00:22,100.00,996.12,1013.95,148,5.83,5.83,-91,1
1586989400,2020-04-16 00:23,100.00,996.04,1013.87,148,5.85,5.85,-92,1
1586989463,2020-04-16 00:24,100.00,996.13,1013.96,148,5.84,5.84,-92,1
1586989526,2020-04-16 00:25,100.00,996.15,1013.98,148,5.97,5.97,-92,1
1586989586,2020-04-16 00:26,100.00,996.08,1013.92,148,5.95,5.95,-91,1
1586989649,2020-04-16 00:27,100.00,996.09,1013.92,148,6.12,6.12,-92,1
1586989712,2020-04-16 00:28,100.00,996.06,1013.89,148,6.01,6.01,-92,1
1586989775,2020-04-16 00:29,100.00,996.00,1013.83,148,5.97,5.97,-93,1
1586989964,2020-04-16 00:32,100.00,995.91,1013.75,148,6.06,6.06,-90,1
1586990028,2020-04-16 00:33,100.00,995.88,1013.71,148,6.04,6.04,-92,1
1586990088,2020-04-16 00:34,100.00,995.86,1013.69,148,5.99,5.99,-92,1
1586990151,2020-04-16 00:35,100.00,995.90,1013.73,148,5.95,5.95,-91,1
1586990211,2020-04-16 00:36,100.00,995.86,1013.69,148,6.00,6.00,-93,1
1586990271,2020-04-16 00:37,100.00,995.80,1013.63,148,5.95,5.95,-93,1
1586990332,2020-04-16 00:38,100.00,995.92,1013.75,148,5.93,5.93,-91,1
1586990392,2020-04-16 00:39,100.00,995.82,1013.65,148,5.92,5.92,-93,1
1586990452,2020-04-16 00:40,100.00,995.81,1013.64,148,5.91,5.91,-92,1
1586990513,2020-04-16 00:41,100.00,995.83,1013.66,148,5.96,5.96,-93,1
1586990573,2020-04-16 00:42,100.00,995.79,1013.62,148,5.92,5.92,-92,1
1586990633,2020-04-16 00:43,100.00,995.75,1013.58,148,5.91,5.91,-91,1
1586990693,2020-04-16 00:44,100.00,995.75,1013.58,148,5.93,5.93,-93,1
1586990754,2020-04-16 00:45,100.00,995.72,1013.55,148,5.91,5.91,-92,1
1586990814,2020-04-16 00:46,100.00,995.57,1013.40,148,5.90,5.90,-91,1
1586990875,2020-04-16 00:47,100.00,995.66,1013.49,148,5.89,5.89,-92,1
1586990936,2020-04-16 00:48,100.00,995.70,1013.53,148,5.95,5.95,-93,1
1586990996,2020-04-16 00:49,100.00,995.61,1013.44,148,6.00,6.00,-91,1
1586991062,2020-04-16 00:51,100.00,995.66,1013.49,148,5.95,5.95,-92,1
1586991122,2020-04-16 00:52,100.00,995.62,1013.45,148,5.97,5.97,-92,1
1586991183,2020-04-16 00:53,100.00,995.60,1013.43,148,5.93,5.93,-92,1
1586991249,2020-04-16 00:54,100.00,995.70,1013.53,148,6.06,6.06,-95,1
1586991309,2020-04-16 00:55,100.00,995.60,1013.43,148,5.96,5.96,-94,1
1586991432,2020-04-16 00:57,100.00,995.56,1013.39,148,5.96,5.96,-93,1
1586991493,2020-04-16 00:58,100.00,995.53,1013.36,148,5.97,5.97,-93,1
1586991554,2020-04-16 00:59,100.00,995.56,1013.39,148,5.97,5.97,-93,1
1586991614,2020-04-16 01:00,100.00,995.58,1013.41,148,6.01,6.01,-91,1
1586991675,2020-04-16 01:01,100.00,995.56,1013.39,148,5.95,5.95,-93,1
1586991803,2020-04-16 01:03,100.00,995.49,1013.32,148,5.97,5.97,-92,1
1586991863,2020-04-16 01:04,100.00,995.47,1013.30,148,5.98,5.98,-91,1
1586991987,2020-04-16 01:06,100.00,995.37,1013.20,148,5.93,5.93,-90,1
1586992047,2020-04-16 01:07,100.00,995.35,1013.18,148,5.94,5.94,-91,1
1586992111,2020-04-16 01:08,100.00,995.44,1013.27,148,5.92,5.92,-93,1
1586992177,2020-04-16 01:09,100.00,995.41,1013.24,148,5.92,5.92,-91,1
1586992301,2020-04-16 01:11,100.00,995.44,1013.27,148,5.95,5.95,-92,1
1586992361,2020-04-16 01:12,100.00,995.43,1013.26,148,5.91,5.91,-93,1
1586992421,2020-04-16 01:13,100.00,995.44,1013.27,148,5.98,5.98,-92,1
1586992484,2020-04-16 01:14,100.00,995.36,1013.19,148,5.97,5.97,-90,1
1586992544,2020-04-16 01:15,100.00,995.41,1013.24,148,5.96,5.96,-91,1
1586992607,2020-04-16 01:16,100.00,995.41,1013.24,148,5.92,5.92,-92,1
1586992667,2020-04-16 01:17,100.00,995.40,1013.23,148,5.93,5.93,-91,1
1586992728,2020-04-16 01:18,100.00,995.39,1013.22,148,5.95,5.95,-94,1
1586992788,2020-04-16 01:19,100.00,995.34,1013.18,148,5.96,5.96,-92,1
1586992848,2020-04-16 01:20,100.00,995.33,1013.17,148,6.09,6.09,-92,1
1586992910,2020-04-16 01:21,100.00,995.40,1013.23,148,6.03,6.03,-92,1
1586992971,2020-04-16 01:22,100.00,995.29,1013.13,148,6.10,6.10,-94,1
1586993033,2020-04-16 01:23,100.00,995.31,1013.14,148,6.08,6.08,-94,1
1586993094,2020-04-16 01:24,100.00,995.26,1013.09,148,6.03,6.03,-94,1
1586993157,2020-04-16 01:25,100.00,995.28,1013.11,148,6.05,6.05,-92,1
1586993217,2020-04-16 01:26,100.00,995.28,1013.11,148,6.04,6.04,-91,1
1586993277,2020-04-16 01:27,100.00,995.27,1013.10,148,6.01,6.01,-93,1
1586993337,2020-04-16 01:28,100.00,995.18,1013.02,148,6.03,6.03,-93,1
1586993398,2020-04-16 01:29,100.00,995.25,1013.08,148,6.09,6.09,-92,1
1586993458,2020-04-16 01:30,100.00,995.19,1013.03,148,6.03,6.03,-91,1
1586993521,2020-04-16 01:32,100.00,995.23,1013.06,148,6.04,6.04,-92,1
1586993581,2020-04-16 01:33,100.00,995.18,1013.02,148,6.04,6.04,-93,1
1586993641,2020-04-16 01:34,100.00,995.23,1013.06,148,6.02,6.02,-93,1
1586993704,2020-04-16 01:35,100.00,995.18,1013.01,148,6.00,6.00,-93,1
1586993767,2020-04-16 01:36,100.00,995.14,1012.97,148,5.98,5.98,-91,1
1586993828,2020-04-16 01:37,100.00,995.09,1012.92,148,5.95,5.95,-92,1
1586993888,2020-04-16 01:38,100.00,995.04,1012.87,148,5.90,5.90,-92,1
1586993949,2020-04-16 01:39,100.00,995.01,1012.84,148,5.88,5.88,-91,1
1586994009,2020-04-16 01:40,100.00,995.00,1012.83,148,5.80,5.80,-93,1
1586994069,2020-04-16 01:41,100.00,995.12,1012.95,148,5.75,5.75,-93,1
1586994129,2020-04-16 01:42,100.00,995.10,1012.93,148,5.70,5.70,-93,1
1586994190,2020-04-16 01:43,100.00,995.10,1012.93,148,5.63,5.63,-91,1
1586994250,2020-04-16 01:44,100.00,995.09,1012.92,148,5.60,5.60,-93,1
1586994310,2020-04-16 01:45,100.00,995.17,1013.00,148,5.54,5.54,-93,1
1586994370,2020-04-16 01:46,100.00,995.09,1012.92,148,5.51,5.51,-92,1
1586994430,2020-04-16 01:47,100.00,995.04,1012.87,148,5.56,5.56,-93,1
1586994491,2020-04-16 01:48,100.00,995.03,1012.86,148,5.49,5.49,-92,1
1586994551,2020-04-16 01:49,100.00,995.03,1012.86,148,5.44,5.44,-92,1
1586994611,2020-04-16 01:50,100.00,995.01,1012.85,148,5.37,5.37,-92,1
1586994671,2020-04-16 01:51,100.00,995.00,1012.83,148,5.32,5.32,-93,1
1586994732,2020-04-16 01:52,100.00,994.94,1012.77,148,5.35,5.35,-91,1
1586994792,2020-04-16 01:53,100.00,994.84,1012.67,148,5.28,5.28,-90,1
1586994853,2020-04-16 01:54,100.00,994.82,1012.66,148,5.33,5.33,-92,1
1586994914,2020-04-16 01:55,100.00,994.80,1012.63,148,5.27,5.27,-92,1
1586994974,2020-04-16 01:56,100.00,994.84,1012.67,148,5.21,5.21,-94,1
1586995034,2020-04-16 01:57,100.00,994.74,1012.57,148,5.26,5.26,-93,1
1586995097,2020-04-16 01:58,100.00,994.78,1012.61,148,5.26,5.26,-93,1
1586995157,2020-04-16 01:59,100.00,994.75,1012.58,148,5.28,5.28,-92,1
1586995218,2020-04-16 02:00,100.00,994.68,1012.51,148,5.21,5.21,-92,1
1586995278,2020-04-16 02:01,100.00,994.65,1012.48,148,5.16,5.16,-90,1
1586995338,2020-04-16 02:02,100.00,994.56,1012.39,148,5.10,5.10,-93,1
1586995398,2020-04-16 02:03,100.00,994.62,1012.45,148,5.03,5.03,-91,1
1586995458,2020-04-16 02:04,100.00,994.52,1012.36,148,5.07,5.07,-92,1
1586995519,2020-04-16 02:05,100.00,994.50,1012.33,148,5.06,5.06,-92,1
1586995579,2020-04-16 02:06,100.00,994.47,1012.30,148,4.98,4.98,-91,1
1586995639,2020-04-16 02:07,100.00,994.42,1012.25,148,4.94,4.94,-90,1
1586995699,2020-04-16 02:08,100.00,994.42,1012.25,148,5.00,5.00,-92,1
1586995759,2020-04-16 02:09,100.00,994.36,1012.19,148,4.96,4.96,-90,1
1586995820,2020-04-16 02:10,100.00,994.35,1012.18,148,4.91,4.91,-93,1
1586995881,2020-04-16 02:11,100.00,994.37,1012.21,148,4.90,4.90,-92,1
1586995941,2020-04-16 02:12,100.00,994.36,1012.19,148,4.93,4.93,-92,1
1586996001,2020-04-16 02:13,100.00,994.33,1012.16,148,4.97,4.97,-92,1
1586996062,2020-04-16 02:14,100.00,994.34,1012.18,148,4.92,4.92,-92,1
1586996123,2020-04-16 02:15,100.00,994.35,1012.18,148,4.87,4.87,-93,1
1586996183,2020-04-16 02:16,100.00,994.32,1012.15,148,4.83,4.83,-91,1
1586996243,2020-04-16 02:17,100.00,994.28,1012.12,148,5.04,5.04,-94,1
1586996303,2020-04-16 02:18,100.00,994.33,1012.17,148,4.92,4.92,-93,1
1586996366,2020-04-16 02:19,100.00,994.28,1012.11,148,4.85,4.85,-92,1
1586996426,2020-04-16 02:20,100.00,994.33,1012.16,148,4.80,4.80,-93,1
1586996490,2020-04-16 02:21,100.00,994.26,1012.09,148,4.68,4.68,-93,1
1586996550,2020-04-16 02:22,100.00,994.21,1012.04,148,4.65,4.65,-92,1
1586996610,2020-04-16 02:23,100.00,994.07,1011.90,148,4.65,4.65,-90,1
1586996671,2020-04-16 02:24,100.00,993.88,1011.71,148,4.73,4.73,-92,1
1586996731,2020-04-16 02:25,100.00,994.05,1011.88,148,4.66,4.66,-93,1
1586996791,2020-04-16 02:26,100.00,994.05,1011.88,148,4.65,4.65,-92,1
1586996851,2020-04-16 02:27,100.00,994.05,1011.88,148,4.64,4.64,-91,1
1586996911,2020-04-16 02:28,100.00,994.04,1011.87,148,4.61,4.61,-92,1
1586996972,2020-04-16 02:29,100.00,994.09,1011.92,148,4.56,4.56,-93,1
1586997032,2020-04-16 02:30,100.00,994.07,1011.90,148,4.54,4.54,-92,1
1586997092,2020-04-16 02:31,100.00,994.08,1011.91,148,4.49,4.49,-91,1
1586997153,2020-04-16 02:32,100.00,994.08,1011.91,148,4.51,4.51,-93,1
1586997213,2020-04-16 02:33,100.00,994.01,1011.84,148,4.53,4.53,-91,1
1586997273,2020-04-16 02:34,100.00,993.94,1011.77,148,4.50,4.50,-94,1
1586997333,2020-04-16 02:35,100.00,993.89,1011.72,148,4.51,4.51,-92,1
1586997393,2020-04-16 02:36,100.00,993.90,1011.73,148,4.48,4.48,-92,1
1586997453,2020-04-16 02:37,100.00,993.85,1011.68,148,4.48,4.48,-93,1
1586997513,2020-04-16 02:38,100.00,993.75,1011.58,148,4.53,4.53,-91,1
1586997573,2020-04-16 02:39,100.00,993.89,1011.72,148,4.57,4.57,-93,1
1586997637,2020-04-16 02:40,100.00,993.79,1011.62,148,4.60,4.60,-90,1
1586997697,2020-04-16 02:41,100.00,993.76,1011.59,148,4.55,4.55,-92,1
1586997757,2020-04-16 02:42,100.00,993.77,1011.60,148,4.62,4.62,-92,1
1586997817,2020-04-16 02:43,100.00,993.75,1011.58,148,4.59,4.59,-92,1
1586997877,2020-04-16 02:44,100.00,993.77,1011.60,148,4.62,4.62,-91,1
1586997937,2020-04-16 02:45,100.00,993.80,1011.63,148,4.64,4.64,-91,1
1586997998,2020-04-16 02:46,100.00,993.84,1011.67,148,4.60,4.60,-93,1
1586998058,2020-04-16 02:47,100.00,993.80,1011.63,148,4.62,4.62,-92,1
1586998118,2020-04-16 02:48,100.00,993.72,1011.55,148,4.64,4.64,-90,1
1586998178,2020-04-16 02:49,100.00,993.70,1011.53,148,4.61,4.61,-93,1
1586998238,2020-04-16 02:50,100.00,993.61,1011.44,148,4.56,4.56,-92,1
1586998299,2020-04-16 02:51,100.00,993.62,1011.46,148,4.54,4.54,-91,1
1586998359,2020-04-16 02:52,100.00,993.60,1011.43,148,4.56,4.56,-92,1
1586998419,2020-04-16 02:53,100.00,993.57,1011.40,148,4.54,4.54,-92,1
1586998480,2020-04-16 02:54,100.00,993.54,1011.37,148,4.57,4.57,-93,1
1586998540,2020-04-16 02:55,100.00,993.53,1011.36,148,4.56,4.56,-92,1
1586998600,2020-04-16 02:56,100.00,993.49,1011.32,148,4.55,4.55,-92,1
1586998661,2020-04-16 02:57,100.00,993.49,1011.32,148,4.51,4.51,-92,1
1586998721,2020-04-16 02:58,100.00,993.38,1011.21,148,4.63,4.63,-92,1
1586998781,2020-04-16 02:59,100.00,993.37,1011.20,148,4.57,4.57,-91,1
1586998841,2020-04-16 03:00,100.00,993.35,1011.18,148,4.54,4.54,-91,1
1586998901,2020-04-16 03:01,100.00,993.32,1011.15,148,4.63,4.63,-92,1
1586998961,2020-04-16 03:02,100.00,993.32,1011.15,148,4.56,4.56,-92,1
1586999021,2020-04-16 03:03,100.00,993.28,1011.11,148,4.59,4.59,-91,1
1586999082,2020-04-16 03:04,100.00,993.27,1011.11,148,4.55,4.55,-92,1
1586999145,2020-04-16 03:05,100.00,993.25,1011.08,148,4.53,4.53,-91,1
1586999205,2020-04-16 03:06,100.00,993.28,1011.11,148,4.53,4.53,-91,1
1586999265,2020-04-16 03:07,100.00,993.21,1011.04,148,4.50,4.50,-92,1
1586999325,2020-04-16 03:08,100.00,993.20,1011.03,148,4.50,4.50,-94,1
1586999385,2020-04-16 03:09,100.00,993.19,1011.02,148,4.55,4.55,-90,1
1586999445,2020-04-16 03:10,100.00,993.18,1011.01,148,4.58,4.58,-93,1
1586999506,2020-04-16 03:11,100.00,993.28,1011.11,148,4.56,4.56,-90,1
1586999566,2020-04-16 03:12,100.00,993.21,1011.04,148,4.60,4.60,-92,1
1586999626,2020-04-16 03:13,100.00,993.18,1011.01,148,4.63,4.63,-91,1
1586999686,2020-04-16 03:14,100.00,992.95,1010.79,148,4.59,4.59,-92,1
1586999746,2020-04-16 03:15,100.00,993.16,1010.99,148,4.58,4.58,-93,1
1586999806,2020-04-16 03:16,100.00,993.14,1010.97,148,4.56,4.56,-92,1
1586999866,2020-04-16 03:17,100.00,993.08,1010.91,148,4.57,4.57,-93,1
1586999927,2020-04-16 03:18,100.00,993.15,1010.98,148,4.55,4.55,-92,1
1586999987,2020-04-16 03:19,100.00,993.03,1010.86,148,4.55,4.55,-94,1
1587000047,2020-04-16 03:20,100.00,993.04,1010.88,148,4.57,4.57,-93,1
1587000107,2020-04-16 03:21,100.00,993.02,1010.85,148,4.55,4.55,-93,1
1587000170,2020-04-16 03:22,100.00,993.21,1011.04,148,4.70,4.70,-91,1
1587000230,2020-04-16 03:23,100.00,992.94,1010.77,148,4.69,4.69,-92,1
1587000294,2020-04-16 03:24,100.00,992.97,1010.80,148,4.68,4.68,-92,1
1587000354,2020-04-16 03:25,100.00,992.89,1010.73,148,4.73,4.73,-92,1
1587000415,2020-04-16 03:26,100.00,992.95,1010.78,148,4.75,4.75,-92,1
1587000475,2020-04-16 03:27,100.00,992.98,1010.82,148,4.70,4.70,-94,1
1587000538,2020-04-16 03:28,100.00,992.91,1010.74,148,4.79,4.79,-93,1
1587000599,2020-04-16 03:29,100.00,992.91,1010.74,148,4.76,4.76,-93,1
1587000659,2020-04-16 03:30,100.00,992.84,1010.67,148,4.69,4.69,-91,1
1587000720,2020-04-16 03:32,100.00,992.87,1010.70,148,4.67,4.67,-90,1
1587000781,2020-04-16 03:33,100.00,992.90,1010.73,148,4.64,4.64,-93,1
1587000841,2020-04-16 03:34,100.00,992.84,1010.67,148,4.65,4.65,-94,1
1587000905,2020-04-16 03:35,100.00,992.82,1010.65,148,4.66,4.66,-93,1
1587000965,2020-04-16 03:36,100.00,992.82,1010.66,148,4.63,4.63,-90,1
1587001026,2020-04-16 03:37,100.00,992.83,1010.66,148,4.59,4.59,-91,1
1587001087,2020-04-16 03:38,100.00,992.93,1010.76,148,4.61,4.61,-93,1
1587001148,2020-04-16 03:39,100.00,992.74,1010.57,148,4.71,4.71,-91,1
1587001209,2020-04-16 03:40,100.00,992.72,1010.55,148,4.72,4.72,-92,1
1587001332,2020-04-16 03:42,100.00,992.68,1010.51,148,4.65,4.65,-92,1
1587001393,2020-04-16 03:43,100.00,992.67,1010.50,148,4.63,4.63,-93,1
1587001456,2020-04-16 03:44,100.00,992.70,1010.53,148,4.58,4.58,-93,1
1587001517,2020-04-16 03:45,100.00,992.66,1010.49,148,4.58,4.58,-93,1
1587001578,2020-04-16 03:46,100.00,992.64,1010.47,148,4.54,4.54,-91,1
1587001638,2020-04-16 03:47,100.00,992.56,1010.40,148,4.58,4.58,-93,1
1587001699,2020-04-16 03:48,100.00,992.59,1010.42,148,4.51,4.51,-94,1
1587001759,2020-04-16 03:49,100.00,992.59,1010.42,148,4.57,4.57,-93,1
1587001823,2020-04-16 03:50,100.00,992.50,1010.33,148,4.58,4.58,-91,1
1587001886,2020-04-16 03:51,100.00,992.51,1010.34,148,4.55,4.55,-91,1
1587001946,2020-04-16 03:52,100.00,992.45,1010.28,148,4.59,4.59,-91,1
1587002007,2020-04-16 03:53,100.00,992.44,1010.27,148,4.63,4.63,-93,1
1587002068,2020-04-16 03:54,100.00,992.39,1010.22,148,4.59,4.59,-92,1
1587002128,2020-04-16 03:55,100.00,992.34,1010.17,148,4.55,4.55,-94,1
1587002188,2020-04-16 03:56,100.00,992.35,1010.18,148,4.60,4.60,-91,1
1587002249,2020-04-16 03:57,100.00,992.33,1010.16,148,4.63,4.63,-93,1
1587002312,2020-04-16 03:58,100.00,992.30,1010.13,148,4.71,4.71,-92,1
1587002372,2020-04-16 03:59,100.00,992.24,1010.07,148,4.77,4.77,-91,1
1587002432,2020-04-16 04:00,100.00,992.08,1009.92,148,4.78,4.78,-94,1
1587002492,2020-04-16 04:01,100.00,992.16,1009.99,148,4.90,4.90,-92,1
1587002552,2020-04-16 04:02,100.00,992.15,1009.98,148,4.83,4.83,-93,1
1587002612,2020-04-16 04:03,100.00,992.17,1010.00,148,4.77,4.77,-93,1
1587002672,2020-04-16 04:04,100.00,992.21,1010.04,148,4.78,4.78,-93,1
1587002733,2020-04-16 04:05,100.00,992.08,1009.91,148,4.70,4.70,-92,1
1587002793,2020-04-16 04:06,100.00,992.09,1009.92,148,4.69,4.69,-92,1
1587002853,2020-04-16 04:07,100.00,992.03,1009.86,148,4.68,4.68,-92,1
1587002913,2020-04-16 04:08,100.00,992.14,1009.97,148,4.63,4.63,-92,1
1587002973,2020-04-16 04:09,100.00,992.02,1009.85,148,4.63,4.63,-93,1
1587003033,2020-04-16 04:10,100.00,992.21,1010.04,148,4.61,4.61,-91,1
1587003096,2020-04-16 04:11,100.00,992.08,1009.91,148,4.66,4.66,-93,1
1587003157,2020-04-16 04:12,100.00,991.97,1009.81,148,4.69,4.69,-91,1
1587003217,2020-04-16 04:13,100.00,992.11,1009.94,148,4.68,4.68,-92,1
1587003277,2020-04-16 04:14,100.00,991.91,1009.74,148,4.71,4.71,-94,1
1587003338,2020-04-16 04:15,100.00,991.87,1009.71,148,4.66,4.66,-90,1
1587003398,2020-04-16 04:16,100.00,991.89,1009.72,148,4.66,4.66,-93,1
1587003458,2020-04-16 04:17,100.00,991.98,1009.81,148,4.64,4.64,-92,1
1587003519,2020-04-16 04:18,100.00,992.02,1009.85,148,4.67,4.67,-92,1
1587003579,2020-04-16 04:19,100.00,991.91,1009.74,148,4.61,4.61,-92,1
1587003640,2020-04-16 04:20,100.00,991.83,1009.66,148,4.63,4.63,-91,1
1587003701,2020-04-16 04:21,100.00,991.82,1009.65,148,4.66,4.66,-91,1
1587003761,2020-04-16 04:22,100.00,992.07,1009.90,148,4.71,4.71,-93,1
1587003821,2020-04-16 04:23,100.00,991.79,1009.62,148,4.66,4.66,-92,1
1587004008,2020-04-16 04:26,100.00,991.79,1009.62,148,4.80,4.80,-94,1
1587004068,2020-04-16 04:27,100.00,991.77,1009.60,148,4.71,4.71,-92,1
1587004129,2020-04-16 04:28,100.00,991.74,1009.57,148,4.63,4.63,-93,1
1587004189,2020-04-16 04:29,100.00,991.84,1009.67,148,4.65,4.65,-94,1
1587004249,2020-04-16 04:30,100.00,991.75,1009.58,148,4.71,4.71,-91,1
1587004309,2020-04-16 04:31,100.00,991.73,1009.56,148,4.65,4.65,-91,1
1587004370,2020-04-16 04:32,100.00,991.71,1009.54,148,4.61,4.61,-91,1
1587004430,2020-04-16 04:33,100.00,991.67,1009.50,148,4.59,4.59,-91,1
1587004491,2020-04-16 04:34,100.00,991.63,1009.46,148,4.56,4.56,-92,1
1587004552,2020-04-16 04:35,100.00,991.58,1009.41,148,4.55,4.55,-93,1
1587004612,2020-04-16 04:36,100.00,991.49,1009.32,148,4.53,4.53,-93,1
1587004672,2020-04-16 04:37,100.00,991.54,1009.37,148,4.53,4.53,-92,1
1587004732,2020-04-16 04:38,100.00,991.40,1009.24,148,4.57,4.57,-93,1
1587004796,2020-04-16 04:39,100.00,991.41,1009.25,148,4.55,4.55,-91,1
1587004856,2020-04-16 04:40,100.00,991.36,1009.19,148,4.59,4.59,-91,1
1587004917,2020-04-16 04:41,100.00,991.42,1009.25,148,4.51,4.51,-91,1
1587004978,2020-04-16 04:42,100.00,991.35,1009.18,148,4.52,4.52,-92,1
1587005038,2020-04-16 04:43,100.00,991.46,1009.29,148,4.64,4.64,-93,1
1587005099,2020-04-16 04:44,100.00,991.43,1009.26,148,4.58,4.58,-92,1
1587005160,2020-04-16 04:46,100.00,991.50,1009.33,148,4.62,4.62,-92,1
1587005220,2020-04-16 04:47,100.00,991.52,1009.35,148,4.55,4.55,-93,1
1587005280,2020-04-16 04:48,100.00,991.51,1009.34,148,4.56,4.56,-89,1
1587005340,2020-04-16 04:49,100.00,991.54,1009.37,148,4.48,4.48,-93,1
1587005400,2020-04-16 04:50,100.00,991.43,1009.26,148,4.52,4.52,-92,1
1587005460,2020-04-16 04:51,100.00,991.48,1009.31,148,4.49,4.49,-90,1
1587005521,2020-04-16 04:52,100.00,991.49,1009.32,148,4.53,4.53,-93,1
1587005581,2020-04-16 04:53,100.00,991.40,1009.23,148,4.47,4.47,-93,1
1587005641,2020-04-16 04:54,100.00,991.44,1009.27,148,4.43,4.43,-91,1
1587005701,2020-04-16 04:55,100.00,991.41,1009.24,148,4.48,4.48,-92,1
1587005761,2020-04-16 04:56,100.00,991.35,1009.18,148,4.48,4.48,-93,1
1587005821,2020-04-16 04:57,100.00,991.22,1009.05,148,4.53,4.53,-93,1
1587005882,2020-04-16 04:58,100.00,991.34,1009.17,148,4.54,4.54,-91,1
1587005942,2020-04-16 04:59,100.00,991.25,1009.08,148,4.53,4.53,-94,1
1587006002,2020-04-16 05:00,100.00,991.27,1009.10,148,4.48,4.48,-93,1
1587006062,2020-04-16 05:01,100.00,991.30,1009.13,148,4.52,4.52,-92,1
1587006124,2020-04-16 05:02,100.00,991.31,1009.15,148,4.48,4.48,-93,1
1587006185,2020-04-16 05:03,100.00,991.14,1008.97,148,4.53,4.53,-93,1
1587006245,2020-04-16 05:04,100.00,991.27,1009.10,148,4.50,4.50,-92,1
1587006305,2020-04-16 05:05,100.00,991.20,1009.03,148,4.52,4.52,-93,1
1587006365,2020-04-16 05:06,100.00,991.13,1008.96,148,4.54,4.54,-94,1
1587006425,2020-04-16 05:07,100.00,991.14,1008.97,148,4.34,4.34,-94,1
1587006485,2020-04-16 05:08,100.00,991.10,1008.93,148,4.45,4.45,-93,1
1587006545,2020-04-16 05:09,100.00,990.98,1008.82,148,4.42,4.42,-90,1
1587006606,2020-04-16 05:10,100.00,991.09,1008.92,148,4.42,4.42,-90,1
1587006666,2020-04-16 05:11,100.00,991.09,1008.92,148,4.41,4.41,-93,1
1587006726,2020-04-16 05:12,100.00,990.97,1008.81,148,4.48,4.48,-91,1
1587006787,2020-04-16 05:13,100.00,991.03,1008.86,148,4.43,4.43,-90,1
1587006847,2020-04-16 05:14,100.00,991.03,1008.86,148,4.50,4.50,-93,1
1587006907,2020-04-16 05:15,100.00,990.91,1008.75,148,4.44,4.44,-92,1
1587006967,2020-04-16 05:16,100.00,990.96,1008.79,148,4.42,4.42,-93,1
1587007027,2020-04-16 05:17,100.00,991.01,1008.84,148,4.40,4.40,-92,1
1587007087,2020-04-16 05:18,100.00,990.96,1008.79,148,4.39,4.39,-91,1
1587007148,2020-04-16 05:19,100.00,990.87,1008.70,148,4.42,4.42,-96,1
1587007208,2020-04-16 05:20,100.00,991.03,1008.86,148,4.42,4.42,-91,1
1587007268,2020-04-16 05:21,100.00,990.97,1008.80,148,4.46,4.46,-90,1
1587007328,2020-04-16 05:22,100.00,990.86,1008.69,148,4.37,4.37,-94,1
1587007388,2020-04-16 05:23,100.00,990.79,1008.62,148,4.35,4.35,-91,1
1587007449,2020-04-16 05:24,100.00,990.81,1008.64,148,4.35,4.35,-92,1
1587007509,2020-04-16 05:25,100.00,990.88,1008.71,148,4.34,4.34,-92,1
1587007569,2020-04-16 05:26,100.00,990.85,1008.69,148,4.47,4.47,-93,1
1587007629,2020-04-16 05:27,100.00,990.67,1008.50,148,4.49,4.49,-91,1
1587007689,2020-04-16 05:28,100.00,990.75,1008.58,148,4.49,4.49,-93,1
1587007749,2020-04-16 05:29,100.00,990.62,1008.45,148,4.53,4.53,-92,1
1587007810,2020-04-16 05:30,100.00,990.58,1008.41,148,4.56,4.56,-92,1
1587007870,2020-04-16 05:31,100.00,990.60,1008.43,148,4.63,4.63,-93,1
1587007930,2020-04-16 05:32,100.00,990.57,1008.40,148,4.58,4.58,-92,1
1587007993,2020-04-16 05:33,100.00,990.35,1008.18,148,4.61,4.61,-91,1
1587008053,2020-04-16 05:34,100.00,990.59,1008.42,148,4.66,4.66,-91,1
1587008113,2020-04-16 05:35,100.00,990.62,1008.45,148,4.76,4.76,-94,1
1587008173,2020-04-16 05:36,100.00,990.58,1008.41,148,4.74,4.74,-92,1
1587008233,2020-04-16 05:37,100.00,990.58,1008.41,148,4.81,4.81,-93,1
1587008293,2020-04-16 05:38,100.00,990.56,1008.39,148,4.72,4.72,-91,1
1587008353,2020-04-16 05:39,100.00,990.43,1008.26,148,4.77,4.77,-91,1
1587008413,2020-04-16 05:40,100.00,990.30,1008.13,148,4.80,4.80,-90,1
1587008474,2020-04-16 05:41,100.00,990.25,1008.08,148,4.85,4.85,-91,1
1587008534,2020-04-16 05:42,100.00,990.22,1008.06,148,4.92,4.92,-92,1
1587008594,2020-04-16 05:43,100.00,990.13,1007.96,148,5.02,5.02,-92,1
1587008654,2020-04-16 05:44,100.00,990.07,1007.90,148,4.94,4.94,-92,1
1587008714,2020-04-16 05:45,100.00,989.91,1007.74,148,4.90,4.90,-92,1
1587008774,2020-04-16 05:46,99.52,989.98,1007.81,148,5.03,4.96,-91,1
1587008834,2020-04-16 05:47,100.00,989.92,1007.75,148,4.95,4.95,-93,1
1587008895,2020-04-16 05:48,99.74,989.80,1007.63,148,5.00,4.97,-94,1
1587008955,2020-04-16 05:49,98.92,989.79,1007.62,148,5.08,4.93,-92,1
1587009015,2020-04-16 05:50,97.89,989.80,1007.64,148,5.13,4.83,-92,1
1587009075,2020-04-16 05:51,97.59,989.82,1007.65,148,5.14,4.79,-92,1
1587009135,2020-04-16 05:52,98.54,989.78,1007.61,148,4.98,4.77,-92,1
1587009195,2020-04-16 05:53,97.56,989.76,1007.59,148,5.08,4.73,-92,1
1587009256,2020-04-16 05:54,97.43,989.94,1007.77,148,5.11,4.74,-94,1
1587009316,2020-04-16 05:55,97.74,989.87,1007.70,148,5.09,4.76,-93,1
1587009376,2020-04-16 05:56,95.23,989.58,1007.41,148,5.28,4.58,-92,1
1587009436,2020-04-16 05:57,96.36,989.96,1007.79,148,5.15,4.62,-94,1
1587009496,2020-04-16 05:58,94.87,989.62,1007.45,148,5.21,4.46,-93,1
1587009556,2020-04-16 05:59,95.98,989.80,1007.63,148,5.18,4.59,-92,1
1587009617,2020-04-16 06:00,95.16,989.51,1007.34,148,5.23,4.52,-92,1